SCP
0 0 0 0 0 0 0 0 0 0 0 0 0 0 0 0 0 0 0 0 0 -0 -0 -0 -1 -0 -0 -1 -1 -1 -2 -1 -1 -1 -0 -0 -0 0 0 0 0 0 0 0 0 0 -0 -0 -0
0 0 0 0 0 0 0 0 0 0 0 0 0 0 0 0 0 0 0 0 0 -0 0 -0 -1 -0 -1 -1 -1 -1 -1 -1 -1 -1 -0 -0 0 0 0 0 0 0 0 0 0 -0 -0 -0 -0
0 0 0 0 0 0 0 0 0 0 0 0 0 0 0 0 0 0 0 0 0 0 0 0 -0 -1 -1 -1 -1 -1 -0 -0 -0 -0 -0 0 0 0 0 0 0 0 0 0 0 0 0 0 0
0 0 0 0 0 0 0 0 0 0 0 0 0 0 0 0 0 0 0 0 0 0 0 0 -0 -0 -0 -1 -1 -1 -0 -0 -0 -0 0 0 0 0 0 0 0 0 0 0 -0 -0 -0 0 0
0 0 0 0 0 0 0 0 -0 0 0 0 0 0 0 0 0 0 0 0 0 1 0 0 0 0 -0 -0 -0 -0 -0 -0 -0 -0 0 0 0 0 0 0 0 0 0 0 -0 -0 -0 -0 0
0 0 0 0 0 0 0 0 0 0 0 0 0 0 0 0 0 0 1 0 0 0 0 0 0 0 0 0 -0 -0 -0 -0 -0 -0 -0 0 0 0 0 0 0 0 0 -0 -0 -0 -0 -0 0
0 0 0 0 0 0 0 -0 0 0 0 0 0 0 0 0 0 0 0 0 1 1 1 1 0 0 0 0 0 0 -0 -0 -0 -0 -0 0 0 0 0 0 0 0 0 -0 -0 -0 0 0 -0
0 0 0 0 0 0 0 0 0 0 0 0 0 0 0 0 0 0 0 0 1 1 1 1 0 1 1 0 0 0 0 0 0 0 -0 0 0 0 0 0 0 -0 -0 -0 -0 0 -0 -0 -0
0 0 0 0 0 0 0 0 0 -0 0 0 0 0 0 0 0 0 0 1 1 1 1 1 1 0 1 1 0 0 0 0 0 0 0 0 -0 -0 -0 -0 0 -0 -0 -0 -0 -0 -0 -0 -0
0 0 0 0 0 0 0 0 0 0 0 0 0 0 0 0 0 1 0 1 1 1 1 1 1 1 1 1 1 1 0 0 0 0 0 0 -0 -0 -0 -0 -0 -0 -0 -0 -0 -0 -0 -0 0
0 0 0 0 0 0 0 0 0 0 0 0 0 0 0 0 0 1 0 0 0 1 1 1 1 1 1 1 1 1 1 1 0 0 0 0 -0 -0 -0 -0 -0 -0 -0 -0 -0 -0 -0 -0 -0
0 0 0 0 0 0 0 0 0 0 0 0 0 0 0 0 0 0 1 1 1 1 1 1 2 2 2 2 2 2 1 1 1 0 0 0 0 -0 -0 -0 -0 0 0 0 0 0 0 -0 -0
0 0 0 0 0 0 0 0 0 0 0 0 0 0 0 0 0 0 0 1 1 1 1 2 2 2 2 2 3 2 2 1 1 1 0 0 0 0 0 0 0 0 0 0 0 0 0 0 0
0 0 0 0 0 0 0 0 0 0 0 0 0 0 0 0 0 0 0 1 1 1 1 2 2 2 3 3 3 2 2 2 1 1 1 0 0 0 0 0 0 0 0 0 0 0 0 0 0
0 0 0 0 0 0 0 0 0 0 0 0 0 0 0 0 0 0 0 1 1 1 1 2 2 2 2 2 3 3 3 2 2 1 1 1 0 0 0 0 0 0 0 0 0 0 0 0 0
0 0 0 0 0 0 0 0 0 0 0 0 0 0 0 0 0 0 0 0 0 1 1 1 2 2 2 2 3 3 2 2 2 2 2 1 1 0 0 0 0 0 0 0 0 0 0 0 0
0 0 0 0 0 0 0 0 0 0 0 0 0 0 0 0 0 0 0 0 0 0 1 2 2 2 1 2 3 3 3 3 2 2 2 2 2 1 0 0 0 0 0 0 0 0 0 0 0
0 0 0 0 0 0 0 0 0 0 0 0 0 0 0 0 0 0 0 0 0 0 0 1 2 2 2 3 3 2 2 2 2 2 1 2 2 2 1 0 0 0 0 0 0 0 0 0 0
0 0 0 0 0 0 0 0 0 0 0 0 0 0 0 0 0 0 0 0 0 0 0 1 2 2 2 2 2 2 2 1 1 1 1 1 2 2 2 1 0 0 0 0 1 0 0 0 0
0 0 0 0 0 0 0 0 0 0 0 0 0 0 0 0 0 0 0 0 0 0 0 1 2 3 3 3 3 3 3 2 2 2 1 1 1 1 2 1 1 1 0 0 1 1 1 0 0
0 0 0 0 0 0 0 0 0 0 0 0 0 0 0 0 0 0 0 0 0 0 0 1 4 4 3 4 4 3 3 2 2 1 1 1 1 2 1 1 2 2 2 2 1 1 1 1 0
0 0 0 0 0 0 0 -0 0 0 0 0 0 0 0 0 0 0 0 0 0 0 0 1 4 6 6 5 5 4 5 5 3 3 2 1 1 2 2 1 3 3 2 2 2 2 1 1 0
0 0 0 0 0 0 0 0 0 0 0 0 0 0 0 0 0 0 0 0 0 0 0 0 1 3 4 4 4 4 3 2 1 2 2 2 2 1 1 2 2 2 2 3 1 1 1 1 1
0 0 0 0 0 0 0 0 0 0 0 0 0 0 0 0 0 0 0 0 0 0 0 0 0 1 1 3 3 3 3 2 2 1 2 2 1 1 1 1 1 2 2 1 1 1 0 0 1
0 0 0 0 0 0 0 0 0 0 0 0 0 0 0 0 0 0 0 0 0 0 0 0 0 0 0 0 0 0 1 1 1 1 1 1 1 1 1 1 1 1 1 2 0 1 1 1 1
0 0 0 0 0 0 0 0 0 0 0 0 0 0 0 0 0 0 0 0 0 0 0 0 0 0 0 0 0 0 0 0 0 0 0 1 1 1 1 1 1 1 1 1 1 1 1 1 1
0 0 0 0 0 0 0 0 0 0 0 0 0 0 0 0 0 0 0 0 0 0 0 0 0 0 0 0 0 0 0 0 0 0 0 0 0 0 0 0 0 0 0 1 1 1 1 1 1
0 0 0 0 0 0 0 0 0 0 0 0 0 0 0 0 -0 -0 0 0 0 0 0 0 0 0 0 0 0 0 0 0 0 0 0 0 0 0 0 0 0 0 0 0 1 1 1 1 1
0 0 0 0 0 0 0 0 0 0 0 0 0 0 0 0 0 -0 0 0 0 0 0 0 0 0 0 0 0 0 0 0 0 0 0 0 0 0 0 0 0 0 0 0 0 0 0 0 0
0 0 0 0 0 0 0 -0 0 0 0 -0 -0 -0 0 0 0 0 0 0 0 0 0 0 0 0 0 0 0 0 0 0 0 0 0 0 0 0 0 0 0 0 0 0 0 0 0 0 0
Wind_Speed_500mb
23 23 21 10 6 8 4 10 4 11 12 12 21 8 7 2 8 9 8 50 45 55 68 69 66 62 57 51 49 46 49 54 52 46 40 33 30 30 31 32 33 34 34 34 31 28 27 26 27
27 20 10 4 7 1 7 6 1 6 26 35 12 8 4 2 1 2 23 47 46 57 68 69 65 62 56 52 47 45 48 50 49 45 39 34 33 33 34 35 36 35 35 33 31 28 25 23 24
25 18 5 8 6 9 7 8 4 13 31 20 5 3 2 4 6 16 29 33 39 58 65 68 65 61 57 50 46 45 47 48 47 44 41 38 37 38 39 39 38 35 34 32 29 26 24 21 19
12 7 6 7 13 12 7 5 11 15 20 16 13 3 2 4 3 10 31 22 37 59 62 67 65 60 57 52 46 46 50 50 49 46 44 43 43 43 42 41 39 35 32 30 27 24 20 18 16
12 3 2 3 11 9 8 20 18 8 18 36 17 3 2 5 22 20 25 27 40 56 62 66 65 61 57 53 48 48 50 51 52 53 51 49 47 45 43 40 38 34 31 28 24 22 18 15 11
7 5 4 9 13 7 5 11 15 8 26 38 25 9 4 14 18 19 23 29 47 48 58 62 64 63 60 56 52 51 53 54 56 58 58 56 52 49 45 41 36 32 29 25 21 18 16 12 8
11 8 11 9 8 14 6 3 7 5 18 15 44 6 11 16 21 16 20 30 43 49 55 62 64 63 61 58 56 56 57 60 62 63 61 58 56 51 46 40 35 30 26 22 19 15 11 8 5
9 9 8 9 11 23 10 3 10 15 12 41 17 2 17 21 28 26 22 31 38 47 53 60 64 65 63 61 58 59 61 62 63 62 62 60 56 51 46 40 35 29 24 20 16 12 8 5 1
12 6 9 14 13 20 5 8 14 23 24 25 31 39 51 31 32 40 39 40 46 48 54 60 64 68 67 64 60 58 59 61 63 63 61 59 55 51 46 40 35 30 25 20 16 11 7 2 4
9 8 15 11 9 12 15 16 26 14 39 27 51 43 40 25 38 49 52 52 54 56 60 62 67 70 70 69 66 65 63 63 65 66 65 61 55 49 45 41 36 30 26 22 17 11 6 5 7
7 9 8 7 15 25 10 15 34 11 37 26 37 49 34 25 36 38 51 52 52 61 63 60 67 73 74 74 73 71 70 69 66 65 64 61 58 54 48 43 37 33 29 23 16 10 10 11 7
3 12 15 22 39 41 20 42 30 38 58 60 52 55 57 35 47 43 42 52 51 57 62 64 66 71 75 77 78 77 75 73 72 70 68 66 62 57 52 46 40 35 30 23 17 11 7 3 4
9 10 26 33 34 38 50 28 34 64 51 62 61 60 56 51 55 48 46 45 49 46 57 63 70 73 76 81 82 81 81 79 77 77 74 70 66 59 53 48 42 38 33 25 19 13 11 9 6
4 8 17 14 22 16 14 22 23 21 26 47 53 51 54 52 56 59 55 50 47 46 47 56 66 74 79 76 81 84 85 85 82 81 76 72 67 63 58 53 47 41 34 27 24 20 19 17 14
7 6 13 8 11 10 8 19 18 35 23 38 50 48 49 38 57 63 62 57 52 44 44 44 52 64 67 68 73 83 89 91 89 83 76 70 66 61 55 53 48 42 34 29 28 22 22 21 22
7 8 5 9 8 14 11 28 16 22 28 34 42 46 41 36 46 63 59 53 53 50 45 38 45 56 62 67 72 81 85 91 86 83 75 72 67 61 57 54 52 44 39 34 37 33 28 26 26
11 5 3 14 13 9 11 12 11 50 33 40 44 50 51 58 54 54 64 59 61 53 49 49 51 55 60 63 69 77 83 83 86 82 82 78 70 65 61 58 54 45 48 41 43 41 36 32 28
8 5 6 9 11 7 21 31 19 49 34 41 41 45 54 60 66 65 59 64 69 66 60 54 55 60 66 72 75 78 79 80 76 77 77 71 69 65 63 63 58 48 50 51 49 43 36 35 27
7 6 10 18 27 9 19 28 24 38 41 42 50 41 45 54 67 72 70 64 66 65 72 69 65 67 69 68 70 74 81 76 69 68 68 65 62 67 68 68 68 58 55 61 43 36 32 35 24
10 10 17 14 22 12 17 27 20 13 20 48 44 36 30 40 52 64 71 69 64 64 69 74 71 78 73 71 64 68 71 69 63 63 64 65 58 54 49 64 69 69 61 61 50 45 32 37 29
9 9 10 14 13 9 10 25 11 11 19 40 39 33 24 24 38 50 56 69 74 73 72 79 78 78 74 66 64 65 64 59 58 57 66 60 56 72 70 56 57 57 65 70 59 41 25 28 28
8 9 12 12 8 10 4 36 17 7 20 18 46 47 38 37 40 38 35 41 53 64 66 74 84 83 78 73 68 70 71 68 57 56 59 64 59 51 53 68 65 66 68 68 63 41 45 47 32
14 6 9 10 13 7 5 11 4 5 13 18 18 43 51 44 40 46 43 43 47 53 48 58 69 71 70 72 69 67 63 59 61 59 54 54 62 62 55 65 77 70 69 59 70 52 57 71 82
2 4 5 5 5 17 17 16 40 34 13 11 13 26 35 45 47 55 60 52 47 55 66 68 73 74 70 65 58 55 57 60 62 62 63 62 61 59 58 67 69 67 65 92 59 70 75 83 91
9 10 9 7 3 19 7 11 31 19 10 15 17 25 21 24 41 57 63 71 63 65 71 78 80 81 74 67 63 58 50 48 50 50 52 59 63 69 67 63 66 64 78 67 58 57 59 51 52
2 10 8 12 12 28 11 14 31 3 5 20 28 10 11 18 22 39 56 65 70 64 76 87 88 83 78 71 60 51 41 34 34 37 40 38 44 52 59 65 62 54 50 51 53 49 49 47 48
1 6 4 6 13 12 10 18 26 10 18 27 5 9 25 33 33 40 38 36 51 51 74 94 96 84 71 58 46 35 32 31 30 30 31 28 29 33 39 43 48 58 63 62 66 62 61 55 48
6 8 1 2 8 11 7 8 14 18 17 19 20 23 27 18 35 42 47 20 15 38 60 90 81 70 59 47 37 30 27 24 23 25 28 28 27 28 28 26 23 24 29 32 37 38 39 41 42
3 2 4 2 6 8 9 6 9 10 9 15 15 27 31 33 26 17 28 37 32 2 38 64 64 59 48 36 31 33 29 23 21 20 21 22 22 20 23 23 23 22 23 24 27 29 32 36 38
8 11 11 7 11 7 6 17 15 4 16 16 34 45 55 51 36 44 40 22 28 28 12 31 52 55 49 45 46 31 32 29 29 27 27 26 23 21 16 15 15 12 13 16 19 21 25 31 38
Wind_Direction_500mb
311 319 330 334 36 62 261 248 268 335 341 288 304 235 172 122 179 214 277 170 173 178 173 173 174 174 175 177 177 175 171 167 168 170 168 165 157 153 148 145 142 136 133 129 124 118 115 116 118
302 314 330 59 90 347 258 249 147 291 304 316 293 215 148 25 57 166 156 163 172 178 174 174 176 176 177 178 179 179 175 174 175 174 171 168 161 156 152 149 143 139 135 130 126 123 120 118 117
293 311 310 98 125 212 219 194 220 308 350 325 296 57 74 112 40 145 165 165 174 180 176 176 178 180 179 180 182 180 177 176 176 174 171 169 164 162 158 150 146 144 139 134 132 129 128 127 126
270 283 64 109 216 256 248 28 345 350 341 350 320 357 80 69 99 127 168 177 179 181 179 179 180 182 183 184 187 183 180 178 177 176 175 171 167 165 160 155 152 149 144 140 138 135 133 128 125
233 217 94 219 252 245 245 295 349 338 320 331 321 195 53 103 135 138 153 171 181 182 182 182 182 184 186 187 190 187 182 180 177 175 173 172 171 168 163 162 158 154 150 145 141 136 136 131 127
174 138 107 225 253 238 290 297 338 4 346 336 356 328 138 152 156 159 170 174 181 187 185 185 185 186 189 191 192 189 184 181 176 174 173 173 173 171 169 166 164 160 155 150 146 146 143 136 134
147 113 209 214 255 275 223 302 327 73 336 319 328 268 270 194 169 160 172 181 184 191 189 188 189 190 192 194 194 189 184 180 178 176 176 177 175 174 172 171 169 167 163 158 158 159 149 146 149
186 112 186 218 210 263 263 274 300 345 302 315 339 68 308 257 210 184 180 187 192 195 196 195 193 194 195 197 195 190 185 182 181 182 180 180 179 178 176 176 175 174 172 169 171 170 165 169 168
175 96 213 209 190 239 268 344 302 305 279 297 307 306 314 284 208 199 190 192 199 202 202 201 200 197 199 199 197 195 191 187 185 185 186 186 185 184 183 182 181 182 181 182 187 189 193 227 311
157 161 220 209 217 274 290 292 306 312 292 284 299 305 328 266 220 203 199 198 199 203 206 205 204 203 201 200 200 198 196 195 192 191 191 190 190 191 190 190 189 191 192 195 202 213 240 276 295
186 219 202 245 250 264 263 277 282 269 279 265 287 302 319 237 212 215 213 209 208 206 210 208 210 207 204 204 203 202 201 199 199 198 197 195 195 196 198 197 197 200 205 208 214 238 276 278 267
204 235 224 252 256 260 265 264 257 249 259 279 284 288 294 282 226 215 227 225 219 218 215 214 214 213 208 208 207 207 206 204 204 203 202 201 202 202 202 204 204 208 215 219 231 251 261 228 170
194 247 260 269 275 267 271 259 260 262 268 282 282 281 281 267 242 219 222 212 210 212 219 220 218 216 213 212 212 211 212 211 210 207 207 206 206 207 209 210 212 217 223 230 238 236 237 232 235
237 266 283 295 284 261 240 252 235 279 286 281 278 274 273 267 234 222 211 207 205 210 214 222 223 221 218 218 218 217 217 217 216 215 213 213 212 212 216 216 217 222 231 241 249 247 245 255 258
278 293 329 258 266 234 238 284 235 275 277 269 271 265 266 259 226 215 212 205 205 203 206 204 217 225 224 225 227 227 225 222 221 221 219 220 222 221 219 229 229 233 234 243 252 251 254 260 276
7 47 32 292 334 276 173 258 304 310 268 260 268 266 262 248 229 218 209 209 211 205 206 207 209 220 222 224 228 232 233 228 228 226 223 226 228 230 232 235 236 240 244 251 262 265 264 270 278
5 255 333 317 299 290 186 281 290 309 287 277 275 273 277 280 263 236 226 221 218 216 217 215 220 219 221 225 231 232 235 234 232 229 227 226 228 233 236 239 245 249 247 252 259 264 273 276 287
268 299 261 254 275 213 274 277 268 289 281 269 271 268 270 276 268 261 244 233 225 221 219 222 223 228 230 231 232 233 234 236 236 234 233 235 238 236 239 242 246 245 256 251 255 264 274 279 288
231 232 245 262 272 234 259 269 269 269 285 286 282 278 282 280 272 258 251 244 232 224 220 221 227 229 226 233 231 233 232 234 234 232 229 230 233 238 239 242 244 240 247 247 246 252 265 274 293
230 261 274 277 263 178 269 264 239 245 252 265 274 287 295 288 273 252 247 246 242 237 229 221 227 227 228 231 234 234 232 231 231 230 230 233 235 239 237 245 238 238 232 242 234 245 251 269 297
248 202 253 240 304 296 263 274 285 238 246 261 269 271 279 300 296 263 253 249 242 236 235 230 227 226 226 228 226 227 229 232 222 222 227 235 241 242 245 245 237 242 238 224 228 216 229 264 304
269 227 254 277 349 281 106 288 267 223 240 250 259 263 272 293 291 281 275 260 246 239 238 235 225 221 220 223 224 224 226 229 228 224 220 229 236 243 251 249 243 235 236 235 233 226 246 266 274
237 323 300 279 271 282 180 276 268 188 246 248 262 267 286 291 295 290 284 272 266 249 240 228 223 224 223 224 227 229 233 237 239 240 232 231 234 245 251 248 250 244 238 243 254 250 249 262 261
301 349 299 59 138 258 252 197 275 264 233 244 253 267 283 293 292 289 283 271 256 246 233 222 219 219 218 220 221 224 227 233 238 242 240 234 234 239 247 248 248 241 246 232 228 238 250 248 257
68 46 328 320 313 266 187 214 249 275 196 234 254 282 307 308 293 285 279 267 254 234 232 221 213 213 211 210 214 214 214 217 226 232 238 235 231 237 239 239 242 253 245 247 242 238 242 257 264
353 152 182 261 265 290 333 243 254 29 245 276 270 198 63 13 336 308 288 263 258 244 229 223 210 206 205 204 202 205 211 223 231 234 237 235 232 232 235 239 243 245 241 247 256 254 255 264 268
222 183 204 263 249 269 238 285 301 45 28 1 88 306 69 60 39 19 340 275 249 244 231 222 209 205 202 199 197 206 224 234 244 238 228 219 212 212 216 226 235 242 246 248 252 257 261 266 274
164 157 182 260 277 255 232 268 251 354 0 3 4 328 318 339 57 40 30 10 279 233 229 212 200 196 193 196 207 221 222 212 209 213 218 218 217 215 213 215 218 223 231 236 244 252 258 263 264
156 129 95 203 239 290 310 284 332 294 320 318 303 334 333 318 333 11 11 19 49 52 218 193 190 192 198 204 210 199 196 198 201 213 213 205 201 205 211 215 219 227 236 244 251 257 262 267 268
168 189 163 132 278 252 211 269 230 311 313 344 331 346 354 359 349 328 327 333 358 33 91 212 202 197 199 202 201 201 203 210 217 221 216 217 219 213 195 189 190 206 233 250 265 275 281 285 282
Wind_Speed_850mb
23 23 21 10 6 8 4 10 4 11 12 12 21 8 7 2 8 9 8 50 45 55 68 69 66 62 57 51 49 46 49 54 52 46 40 33 30 30 31 32 33 34 34 34 31 28 27 26 27
27 20 10 4 7 1 7 6 1 6 26 35 12 8 4 2 1 2 23 47 46 57 68 69 65 62 56 52 47 45 48 50 49 45 39 34 33 33 34 35 36 35 35 33 31 28 25 23 24
25 18 5 8 6 9 7 8 4 13 31 20 5 3 2 4 6 16 29 33 39 58 65 68 65 61 57 50 46 45 47 48 47 44 41 38 37 38 39 39 38 35 34 32 29 26 24 21 19
12 7 6 7 13 12 7 5 11 15 20 16 13 3 2 4 3 10 31 22 37 59 62 67 65 60 57 52 46 46 50 50 49 46 44 43 43 43 42 41 39 35 32 30 27 24 20 18 16
12 3 2 3 11 9 8 20 18 8 18 36 17 3 2 5 22 20 25 27 40 56 62 66 65 61 57 53 48 48 50 51 52 53 51 49 47 45 43 40 38 34 31 28 24 22 18 15 11
7 5 4 9 13 7 5 11 15 8 26 38 25 9 4 14 18 19 23 29 47 48 58 62 64 63 60 56 52 51 53 54 56 58 58 56 52 49 45 41 36 32 29 25 21 18 16 12 8
11 8 11 9 8 14 6 3 7 5 18 15 44 6 11 16 21 16 20 30 43 49 55 62 64 63 61 58 56 56 57 60 62 63 61 58 56 51 46 40 35 30 26 22 19 15 11 8 5
9 9 8 9 11 23 10 3 10 15 12 41 17 2 17 21 28 26 22 31 38 47 53 60 64 65 63 61 58 59 61 62 63 62 62 60 56 51 46 40 35 29 24 20 16 12 8 5 1
12 6 9 14 13 20 5 8 14 23 24 25 31 39 51 31 32 40 39 40 46 48 54 60 64 68 67 64 60 58 59 61 63 63 61 59 55 51 46 40 35 30 25 20 16 11 7 2 4
9 8 15 11 9 12 15 16 26 14 39 27 51 43 40 25 38 49 52 52 54 56 60 62 67 70 70 69 66 65 63 63 65 66 65 61 55 49 45 41 36 30 26 22 17 11 6 5 7
7 9 8 7 15 25 10 15 34 11 37 26 37 49 34 25 36 38 51 52 52 61 63 60 67 73 74 74 73 71 70 69 66 65 64 61 58 54 48 43 37 33 29 23 16 10 10 11 7
3 12 15 22 39 41 20 42 30 38 58 60 52 55 57 35 47 43 42 52 51 57 62 64 66 71 75 77 78 77 75 73 72 70 68 66 62 57 52 46 40 35 30 23 17 11 7 3 4
9 10 26 33 34 38 50 28 34 64 51 62 61 60 56 51 55 48 46 45 49 46 57 63 70 73 76 81 82 81 81 79 77 77 74 70 66 59 53 48 42 38 33 25 19 13 11 9 6
4 8 17 14 22 16 14 22 23 21 26 47 53 51 54 52 56 59 55 50 47 46 47 56 66 74 79 76 81 84 85 85 82 81 76 72 67 63 58 53 47 41 34 27 24 20 19 17 14
7 6 13 8 11 10 8 19 18 35 23 38 50 48 49 38 57 63 62 57 52 44 44 44 52 64 67 68 73 83 89 91 89 83 76 70 66 61 55 53 48 42 34 29 28 22 22 21 22
7 8 5 9 8 14 11 28 16 22 28 34 42 46 41 36 46 63 59 53 53 50 45 38 45 56 62 67 72 81 85 91 86 83 75 72 67 61 57 54 52 44 39 34 37 33 28 26 26
11 5 3 14 13 9 11 12 11 50 33 40 44 50 51 58 54 54 64 59 61 53 49 49 51 55 60 63 69 77 83 83 86 82 82 78 70 65 61 58 54 45 48 41 43 41 36 32 28
8 5 6 9 11 7 21 31 19 49 34 41 41 45 54 60 66 65 59 64 69 66 60 54 55 60 66 72 75 78 79 80 76 77 77 71 69 65 63 63 58 48 50 51 49 43 36 35 27
7 6 10 18 27 9 19 28 24 38 41 42 50 41 45 54 67 72 70 64 66 65 72 69 65 67 69 68 70 74 81 76 69 68 68 65 62 67 68 68 68 58 55 61 43 36 32 35 24
10 10 17 14 22 12 17 27 20 13 20 48 44 36 30 40 52 64 71 69 64 64 69 74 71 78 73 71 64 68 71 69 63 63 64 65 58 54 49 64 69 69 61 61 50 45 32 37 29
9 9 10 14 13 9 10 25 11 11 19 40 39 33 24 24 38 50 56 69 74 73 72 79 78 78 74 66 64 65 64 59 58 57 66 60 56 72 70 56 57 57 65 70 59 41 25 28 28
8 9 12 12 8 10 4 36 17 7 20 18 46 47 38 37 40 38 35 41 53 64 66 74 84 83 78 73 68 70 71 68 57 56 59 64 59 51 53 68 65 66 68 68 63 41 45 47 32
14 6 9 10 13 7 5 11 4 5 13 18 18 43 51 44 40 46 43 43 47 53 48 58 69 71 70 72 69 67 63 59 61 59 54 54 62 62 55 65 77 70 69 59 70 52 57 71 82
2 4 5 5 5 17 17 16 40 34 13 11 13 26 35 45 47 55 60 52 47 55 66 68 73 74 70 65 58 55 57 60 62 62 63 62 61 59 58 67 69 67 65 92 59 70 75 83 91
9 10 9 7 3 19 7 11 31 19 10 15 17 25 21 24 41 57 63 71 63 65 71 78 80 81 74 67 63 58 50 48 50 50 52 59 63 69 67 63 66 64 78 67 58 57 59 51 52
2 10 8 12 12 28 11 14 31 3 5 20 28 10 11 18 22 39 56 65 70 64 76 87 88 83 78 71 60 51 41 34 34 37 40 38 44 52 59 65 62 54 50 51 53 49 49 47 48
1 6 4 6 13 12 10 18 26 10 18 27 5 9 25 33 33 40 38 36 51 51 74 94 96 84 71 58 46 35 32 31 30 30 31 28 29 33 39 43 48 58 63 62 66 62 61 55 48
6 8 1 2 8 11 7 8 14 18 17 19 20 23 27 18 35 42 47 20 15 38 60 90 81 70 59 47 37 30 27 24 23 25 28 28 27 28 28 26 23 24 29 32 37 38 39 41 42
3 2 4 2 6 8 9 6 9 10 9 15 15 27 31 33 26 17 28 37 32 2 38 64 64 59 48 36 31 33 29 23 21 20 21 22 22 20 23 23 23 22 23 24 27 29 32 36 38
8 11 11 7 11 7 6 17 15 4 16 16 34 45 55 51 36 44 40 22 28 28 12 31 52 55 49 45 46 31 32 29 29 27 27 26 23 21 16 15 15 12 13 16 19 21 25 31 38
Wind_Direction_850mb
311 319 330 334 36 62 261 248 268 335 341 288 304 235 172 122 179 214 277 170 173 178 173 173 174 174 175 177 177 175 171 167 168 170 168 165 157 153 148 145 142 136 133 129 124 118 115 116 118
302 314 330 59 90 347 258 249 147 291 304 316 293 215 148 25 57 166 156 163 172 178 174 174 176 176 177 178 179 179 175 174 175 174 171 168 161 156 152 149 143 139 135 130 126 123 120 118 117
293 311 310 98 125 212 219 194 220 308 350 325 296 57 74 112 40 145 165 165 174 180 176 176 178 180 179 180 182 180 177 176 176 174 171 169 164 162 158 150 146 144 139 134 132 129 128 127 126
270 283 64 109 216 256 248 28 345 350 341 350 320 357 80 69 99 127 168 177 179 181 179 179 180 182 183 184 187 183 180 178 177 176 175 171 167 165 160 155 152 149 144 140 138 135 133 128 125
233 217 94 219 252 245 245 295 349 338 320 331 321 195 53 103 135 138 153 171 181 182 182 182 182 184 186 187 190 187 182 180 177 175 173 172 171 168 163 162 158 154 150 145 141 136 136 131 127
174 138 107 225 253 238 290 297 338 4 346 336 356 328 138 152 156 159 170 174 181 187 185 185 185 186 189 191 192 189 184 181 176 174 173 173 173 171 169 166 164 160 155 150 146 146 143 136 134
147 113 209 214 255 275 223 302 327 73 336 319 328 268 270 194 169 160 172 181 184 191 189 188 189 190 192 194 194 189 184 180 178 176 176 177 175 174 172 171 169 167 163 158 158 159 149 146 149
186 112 186 218 210 263 263 274 300 345 302 315 339 68 308 257 210 184 180 187 192 195 196 195 193 194 195 197 195 190 185 182 181 182 180 180 179 178 176 176 175 174 172 169 171 170 165 169 168
175 96 213 209 190 239 268 344 302 305 279 297 307 306 314 284 208 199 190 192 199 202 202 201 200 197 199 199 197 195 191 187 185 185 186 186 185 184 183 182 181 182 181 182 187 189 193 227 311
157 161 220 209 217 274 290 292 306 312 292 284 299 305 328 266 220 203 199 198 199 203 206 205 204 203 201 200 200 198 196 195 192 191 191 190 190 191 190 190 189 191 192 195 202 213 240 276 295
186 219 202 245 250 264 263 277 282 269 279 265 287 302 319 237 212 215 213 209 208 206 210 208 210 207 204 204 203 202 201 199 199 198 197 195 195 196 198 197 197 200 205 208 214 238 276 278 267
204 235 224 252 256 260 265 264 257 249 259 279 284 288 294 282 226 215 227 225 219 218 215 214 214 213 208 208 207 207 206 204 204 203 202 201 202 202 202 204 204 208 215 219 231 251 261 228 170
194 247 260 269 275 267 271 259 260 262 268 282 282 281 281 267 242 219 222 212 210 212 219 220 218 216 213 212 212 211 212 211 210 207 207 206 206 207 209 210 212 217 223 230 238 236 237 232 235
237 266 283 295 284 261 240 252 235 279 286 281 278 274 273 267 234 222 211 207 205 210 214 222 223 221 218 218 218 217 217 217 216 215 213 213 212 212 216 216 217 222 231 241 249 247 245 255 258
278 293 329 258 266 234 238 284 235 275 277 269 271 265 266 259 226 215 212 205 205 203 206 204 217 225 224 225 227 227 225 222 221 221 219 220 222 221 219 229 229 233 234 243 252 251 254 260 276
7 47 32 292 334 276 173 258 304 310 268 260 268 266 262 248 229 218 209 209 211 205 206 207 209 220 222 224 228 232 233 228 228 226 223 226 228 230 232 235 236 240 244 251 262 265 264 270 278
5 255 333 317 299 290 186 281 290 309 287 277 275 273 277 280 263 236 226 221 218 216 217 215 220 219 221 225 231 232 235 234 232 229 227 226 228 233 236 239 245 249 247 252 259 264 273 276 287
268 299 261 254 275 213 274 277 268 289 281 269 271 268 270 276 268 261 244 233 225 221 219 222 223 228 230 231 232 233 234 236 236 234 233 235 238 236 239 242 246 245 256 251 255 264 274 279 288
231 232 245 262 272 234 259 269 269 269 285 286 282 278 282 280 272 258 251 244 232 224 220 221 227 229 226 233 231 233 232 234 234 232 229 230 233 238 239 242 244 240 247 247 246 252 265 274 293
230 261 274 277 263 178 269 264 239 245 252 265 274 287 295 288 273 252 247 246 242 237 229 221 227 227 228 231 234 234 232 231 231 230 230 233 235 239 237 245 238 238 232 242 234 245 251 269 297
248 202 253 240 304 296 263 274 285 238 246 261 269 271 279 300 296 263 253 249 242 236 235 230 227 226 226 228 226 227 229 232 222 222 227 235 241 242 245 245 237 242 238 224 228 216 229 264 304
269 227 254 277 349 281 106 288 267 223 240 250 259 263 272 293 291 281 275 260 246 239 238 235 225 221 220 223 224 224 226 229 228 224 220 229 236 243 251 249 243 235 236 235 233 226 246 266 274
237 323 300 279 271 282 180 276 268 188 246 248 262 267 286 291 295 290 284 272 266 249 240 228 223 224 223 224 227 229 233 237 239 240 232 231 234 245 251 248 250 244 238 243 254 250 249 262 261
301 349 299 59 138 258 252 197 275 264 233 244 253 267 283 293 292 289 283 271 256 246 233 222 219 219 218 220 221 224 227 233 238 242 240 234 234 239 247 248 248 241 246 232 228 238 250 248 257
68 46 328 320 313 266 187 214 249 275 196 234 254 282 307 308 293 285 279 267 254 234 232 221 213 213 211 210 214 214 214 217 226 232 238 235 231 237 239 239 242 253 245 247 242 238 242 257 264
353 152 182 261 265 290 333 243 254 29 245 276 270 198 63 13 336 308 288 263 258 244 229 223 210 206 205 204 202 205 211 223 231 234 237 235 232 232 235 239 243 245 241 247 256 254 255 264 268
222 183 204 263 249 269 238 285 301 45 28 1 88 306 69 60 39 19 340 275 249 244 231 222 209 205 202 199 197 206 224 234 244 238 228 219 212 212 216 226 235 242 246 248 252 257 261 266 274
164 157 182 260 277 255 232 268 251 354 0 3 4 328 318 339 57 40 30 10 279 233 229 212 200 196 193 196 207 221 222 212 209 213 218 218 217 215 213 215 218 223 231 236 244 252 258 263 264
156 129 95 203 239 290 310 284 332 294 320 318 303 334 333 318 333 11 11 19 49 52 218 193 190 192 198 204 210 199 196 198 201 213 213 205 201 205 211 215 219 227 236 244 251 257 262 267 268
168 189 163 132 278 252 211 269 230 311 313 344 331 346 354 359 349 328 327 333 358 33 91 212 202 197 199 202 201 201 203 210 217 221 216 217 219 213 195 189 190 206 233 250 265 275 281 285 282